Location: Auttagershofen
(48.1940°N, 10.0237°E)
Time: 12:09:43
(UTC+00:00)

COSMOS 2406 - Pass Details

Date: 18 January 2026
Orbit: 843 x 861 km, 71.0° (Epoch: 16 February)

Event Time Altitude Azimuth Distance (km) Brightness Sun altitude
Exits shadow 05:57:53 - 326° (NW) 2,771 5.4 -10.7°
Reaches altitude 10° 05:58:38 10° 324° (NW) 2,498 5.2 -10.6°
Maximum altitude 06:04:11 53° 250° (WSW) 1,051 3.4 -9.8°
Drops below altitude 10° 06:09:43 10° 175° (S) 2,489 6.0 -8.9°
Sets 06:12:13 0° 170° (S) 3,423 6.8 -8.5°
